Simultaneous Nadir Overpasses (SNOs) Predictions

Prediction of SNOs between NOAA-20 and NOAA-19 Satellite Orbit:

Table of predicted SNOs for the next 14.0 days since TLE Epoch: 2/27/2021
Index Date (NOAA-20) Time (NOAA-20) Lat,Lon (NOAA-20) SZA (NOAA-20 ) Date (NOAA-19) Time (NOAA-19) Lat,Lon (NOAA-19) SZA (NOAA-19 ) Distance(km) Time Diff (sec)
1 03/06/2021 17:09:33 78.41,-104.37 85.26 03/06/2021 17:08:23 78.40,-106.30 85.48 43.27 70
2 03/06/2021 18:00:22 -78.58, 61.95 94.52 03/06/2021 17:59:22 -78.58, 62.14 94.51 4.03 60
3 03/06/2021 18:51:07 78.57,-130.68 85.46 03/06/2021 18:50:19 78.55,-130.75 85.47 2.32 48
4 03/06/2021 19:41:52 -78.58, 36.55 94.54 03/06/2021 19:41:23 -78.56, 36.50 94.54 3.11 29
5 03/06/2021 20:32:37 78.57,-156.08 85.44 03/06/2021 20:32:19 78.57,-156.15 85.45 1.66 18
6 03/06/2021 21:23:22 -78.59, 11.15 94.56 03/06/2021 21:23:23 -78.57, 11.10 94.57 2.03 1
7 03/06/2021 22:14:07 78.58, 178.52 85.42 03/06/2021 22:14:19 78.58, 178.45 85.42 1.61 12
8 03/06/2021 23:04:52 -78.59, -14.25 94.58 03/06/2021 23:05:23 -78.58, -14.29 94.60 1.15 31
9 03/06/2021 23:55:37 78.58, 153.12 85.40 03/06/2021 23:56:19 78.60, 153.05 85.40 2.22 42
10 03/07/2021 00:46:21 -78.59, -39.65 94.60 03/07/2021 00:47:22 -78.60, -39.69 94.62 1.13 61
11 03/07/2021 01:37:06 78.59, 127.72 85.37 03/07/2021 01:38:18 78.61, 127.65 85.37 3.11 72



Historial Predications of SNOs between NOAA-20 and NOAA-19
